Regional Weather Roundup
Issued by NWS Green Bay, WI

Home | Current Version | Previous Version | Text Only | Print | Product List | Glossary On
Versions: 1 2 3 4 5 6 7 8 9 10 11 12 13 14 15 16 17 18 19 20 21 22 23 24 25 26 27 28 29 30 31 32 33 34 35 36 37 38 39 40 41 42 43 44 45 46 47 48 49 50
000
ASUS43 KGRB 232110
RWRGRB

NORTH-CENTRAL AND NORTHEAST WISCONSIN REGIONAL WEATHER ROUNDUP
NATIONAL WEATHER SERVICE GREEN BAY WI
400 PM CDT THU OCT 23 2014

WIZ005-009-010>012-018-019-232200-
NORTH CENTRAL WISCONSIN

CITY           SKY/WX    TMP DP  RH WIND       PRES   REMARKS
IRONWOOD       CLOUDY    48  46  93 S9        29.95F
MANITOWISH WTR CLOUDY    45  45 100 S6        29.99S FOG
ARBOR VITAE    CLOUDY    45  44  95 SW6       30.00S FOG
EAGLE RIVER    CLOUDY    44  44 100 CALM      30.00S
LAND O LAKES   CLOUDY    46  45  97 S6        30.00F
RHINELANDER    CLOUDY    44  43  96 S6        30.02S
PHILLIPS       CLOUDY    46  46  99 S5        29.99F
ANTIGO         CLOUDY    44  43  98 S5        30.03S FOG
TOMAHAWK       CLOUDY    45  43  95 CALM      30.03R FOG
MERRILL        CLOUDY    46  46  99 SW3       30.02R FOG
$$

WIZ013-073-232200-
NORTHEAST WISCONSIN

CITY           SKY/WX    TMP DP  RH WIND       PRES   REMARKS
IRON MOUNTAIN  LGT RAIN  45  43  93 SE6       30.01F FOG
MARINETTE      CLOUDY    52  45  76 SW3       30.04F
OCONTO         CLOUDY    50  47  90 CALM      30.05S
$$

WIZ017-030-035>037-045-232200-
CENTRAL WISCONSIN

CITY           SKY/WX    TMP DP  RH WIND       PRES   REMARKS
MEDFORD        CLOUDY    46  45  98 SW5       30.01S FOG
WAUSAU         CLOUDY    46  45  96 S6        30.01S FOG
MOSINEE        CLOUDY    46  46 100 S5        30.03S FOG
MARSHFIELD     FOG       48  46  93 S5        30.01S VSB 1/2
WISC RAPIDS    CLOUDY    47  45  93 S5        30.04S
STEVENS POINT  CLOUDY    45  44  97 CALM      30.03S FOG
WAUPACA        RAIN      49  47  95 S5        30.04F
SHAWANO        DRIZZLE   49  46  92 CALM      30.05F
CLINTONVILLE   LGT RAIN  46  45  93 S5        30.04F
$$

WIZ038-039-048-051-232200-
FOX VALLEY

CITY           SKY/WX    TMP DP  RH WIND       PRES   REMARKS
NWS GREEN BAY  LGT RAIN  50  47  89 SW5       30.05F FOG
APPLETON       LGT RAIN  48  45  87 S8        30.05S FOG
OSHKOSH        LGT RAIN  50  48  93 CALM      30.06R FOG
FOND DU LAC    LGT RAIN  51  46  83 S10       30.06R
$$

WIZ022-050-052-232200-
EAST CENTRAL WISCONSIN

CITY           SKY/WX    TMP DP  RH WIND       PRES   REMARKS
STURGEON BAY   CLOUDY    52  43  71 S8        30.06F
MANITOWOC      LGT RAIN  52  47  83 S13       30.06F
SHEBOYGAN      LGT RAIN  51  46  83 S12       30.08R
$$

LMZ563-521-522-541>543-232200-
LAKESHORE

STATION/POSITION TIME  TEMP    WIND        PRES    VSBY  WAVE
                       AIR SEA DIR/SP/G                  HT/PER
                 (UTC) (F)     (DEG/KT/KT) (MB)    (MI)  (FT/S)
SHEBOYGAN LKSHOR 2100   51 50  190/ 15/ 17 1019.3R
KEWAUNEE LKSHORE 2100   51     170/ 12/ 13 1017.0F
ALGOMA MARINA    2000          220/ 18/ 20   N/A
NORTHPORT PIER   2100   52     160/  5/ 13 1017.6F
N MID LAKE BUOY  2100   51 51  190/ 16/ 17 1018.6F         4/ 5
CHAMBERS ISLAND  2100   51     160/  1/  7 1017.9S
MENOMINEE LKSHOR 2100   51     160/  4/  5 1017.9F
$$



USA.gov is the U.S. government's official web portal to all federal, state and local government web resources and services.